Regional Weather Roundup
Issued by NWS

Home | Current Version | Previous Version | Text Only | Print | Product List | Glossary Off
Versions: 1 2 3 4 5 6 7 8 9 10 11 12 13 14 15 16 17 18 19 20 21 22 23 24 25 26 27 28 29 30 31 32 33 34 35 36 37 38 39 40 41 42 43 44 45 46 47 48 49 50

000
ASUS43 KIND 052309
RWRIN

WEATHER ROUNDUP FOR INDIANA
NATIONAL WEATHER SERVICE INDIANAPOLIS IN
600 PM EST THU MAR 05 2015

NOTE: "FAIR" INDICATES FEW OR NO CLOUDS BELOW 12,000 FEET WITH NO
SIGNIFICANT WEATHER AND/OR OBSTRUCTIONS TO VISIBILITY.

* - STATION DOES NOT REPORT WEATHER SUCH AS PRECIPITATION OR FOG.

+ - STATION NOT QUALITY CONTROLLED BY THE NATIONAL WEATHER SERVICE.
    USE DATA WITH CAUTION...ESPECIALLY DEWPOINT AND RELATIVE
    HUMIDITY OBSERVATIONS.

INZ001>003-010>013-019-020-060000-
NORTHWEST INDIANA

CITY           SKY/WX    TMP DP  RH WIND       PRES   REMARKS
KNOX *+          N/A     18  -9  29 N7        30.48S WCI   8
LA PORTE +     CLEAR     17   2  52 NW7       30.49R WCI   8
MICHIGAN CITY+ CLEAR     16  -4  41 N7        30.50S WCI   6
MONTICELLO +   CLEAR     16   3  56 W6        30.50R WCI   7
RENSSELAER +   CLEAR     18   5  57 W8        30.51R WCI   7
VALPARAISO     CLEAR     17   0  47 N5        30.48R WCI  10

$$

LMZ046-743>745-060000-
SOUTHERN LAKE MICHIGAN

STATION/POSITION TIME  TEMP WIND        PRES
                       AIR  DIR/SP/G
                 (UTC) (F)  (DEG/KT/KT) (MB)
MICHIGAN CITY    2300   18  320/  5/  8   N/A

$$

INZ004-005-014>016-021>024-060000-
NORTH CENTRAL INDIANA

CITY           SKY/WX    TMP DP  RH WIND       PRES   REMARKS
ELKHART        PTCLDY    18   7  62 NW12      30.47R WCI   5
GOSHEN         CLEAR     16   6  65 W13       30.46R WCI   2
LOGANSPORT +   FAIR      16   3  57 W6        30.50R WCI   7
PERU/GRISSOM   PTCLDY    17   8  68 W8        30.47R WCI   7
ROCHESTER +    CLEAR     21   5  49 NW7       30.48R WCI  13
SOUTH BEND     CLEAR     16   4  59 W13       30.48R WCI   2
WARSAW +       CLEAR     18   5  57 NW9       30.46S WCI   6

$$

INZ006>009-017-018-025>027-060000-
NORTHEAST INDIANA

CITY           SKY/WX    TMP DP  RH WIND       PRES   REMARKS
ANGOLA *+      MOCLDY    18   3  53 NW3       30.43R
AUBURN +       MOCLDY    19   7  58 NW5       30.45S WCI  13
FORT WAYNE     PTCLDY    17   7  64 W6        30.46R WCI   9
HUNTINGTON +   CLOUDY    19   8  61 W6        30.46R WCI  11

$$

INZ028-029-035-036-043>045-051>053-060000-
WEST CENTRAL INDIANA

CITY           SKY/WX    TMP DP  RH WIND       PRES   REMARKS
CRAWFORDSVL +  CLEAR     14  -3  46 W9        30.51R WCI   1
GREENCASTLE +  CLEAR     19   0  42 NW7       30.50R WCI  10
LAFAYETTE      CLEAR     15   1  53 NW8       30.52R WCI   4
TERRE HAUTE    CLEAR     16   2  54 NW10      30.54R WCI   4

$$

INZ030>032-037>040-046>048-054>057-064-065-060000-
CENTRAL INDIANA

CITY           SKY/WX    TMP DP  RH WIND       PRES   REMARKS
CP ATTERBURY + PTCLDY    23   9  54 NW10      30.49R WCI  12
COLUMBUS       CLEAR     21   3  45 N12       30.49  WCI   9
FRANKFORT +    CLEAR     17   6  62 W8        30.51R WCI   6
GREENWOOD *+   PTCLDY    19   3  49 NW8       30.48R WCI   9
INDIANAPOLIS   PTCLDY    17   6  62 NW12      30.48R WCI   4
-EAGLE CREEK   CLEAR     18   5  57 NW12      30.48R WCI   5
KOKOMO *+      CLEAR     18  10  73 W12       30.48R WCI   5
MARION +       MOCLDY    16   9  71 NW9       30.48R WCI   5
MT COMFORT *+  MOCLDY    19   1  45 N10       30.48R WCI   8
SHELBYVILLE    CLOUDY    22   7  52 N9        30.47R WCI  12
ZIONSVILLE +   FLURRIES  19   9  66 W8        30.49R WCI   9

$$

INZ033-034-041-042-049-050-058-059-060000-
EAST CENTRAL INDIANA

CITY           SKY/WX    TMP DP  RH WIND       PRES   REMARKS
MUNCIE         CLEAR     17   7  64 NW10      30.47R WCI   5

$$

INZ060-061-067>069-081>083-085>088-060000-
SOUTHWEST INDIANA

CITY           SKY/WX    TMP DP  RH WIND       PRES   REMARKS
EVANSVILLE     CLEAR     21   4  47 N9G18     30.55R WCI  11
HUNTINGBURG *+ CLEAR     19   3  49 NW12      30.53R WCI   7
WASHINGTON +   CLEAR     19   1  47 NW12      30.53S WCI   6

$$

INZ062-063-066-070>080-084-089>092-060000-
SOUTH CENTRAL AND SOUTHEAST INDIANA

CITY           SKY/WX    TMP DP  RH WIND       PRES   REMARKS
BEDFORD +      CLEAR     23   5  46 W7        30.48R WCI  15
BLOOMINGTON    CLOUDY    22   7  52 N13       30.47R WCI  10
NORTH VERNON + CLEAR     23   9  54 N9        30.47R WCI  13
SEYMOUR +      CLEAR     23   9  54 NE8       30.48R WCI  14

$$



USA.gov is the U.S. government's official web portal to all federal, state and local government web resources and services.